Cosmos 1933 Rocket - Orbit

View from above orbital plane
View from above orbital plane
View from above satellite
View from above satellite

Ground track
Ground track

The orbit data is extracted from the following two-line orbital elements,

1 18959U 88020B   13138.18504201  .00000382  00000-0  44549-4 0  9361
2 18959 082.5394 223.2902 0017033 017.5608 044.6904 14.82481948359605
Epoch (UTC): 18 May 2013 04:26:27
Eccentricity: 0.0017033
inclination: 82.5394°
perigee height: 609 km
apogee height: 633 km
right ascension of ascending node: 223.2902°
argument of perigee: 17.5608°
revolutions per day: 14.82481948
mean anomaly at epoch: 44.6904°
orbit number at epoch: 35960

The dashed part of the orbit path shows where the satellite is in the earth's shadow,  

Developed and maintained by Chris Peat, Heavens-Above GmbH. Please read the updated FAQ before sending e-mail. Imprint. DLR